Precipitable_Water
0.36 0.39 0.35 0.39 0.40 0.40 0.35 0.33 0.33 0.36 0.38 0.36 0.37 0.36 0.38 0.37 0.42 0.43 0.50 0.55 0.66 0.69 0.75 0.69 0.65 0.73 0.77 0.96 1.16 1.22 1.26 1.35 1.37 1.36 1.35 1.36 1.34 1.40 1.41 1.36 1.27 1.20 1.24 1.21
0.32 0.30 0.41 0.46 0.46 0.42 0.36 0.32 0.32 0.35 0.36 0.34 0.35 0.31 0.32 0.34 0.37 0.42 0.48 0.55 0.61 0.69 0.72 0.69 0.62 0.65 0.72 0.89 1.12 1.21 1.24 1.25 1.37 1.35 1.37 1.37 1.36 1.37 1.33 1.27 1.27 1.27 1.19 1.14
0.40 0.33 0.45 0.46 0.46 0.43 0.40 0.37 0.35 0.34 0.36 0.37 0.35 0.33 0.35 0.34 0.37 0.39 0.42 0.44 0.57 0.65 0.68 0.68 0.60 0.62 0.67 0.81 1.02 1.18 1.21 1.21 1.31 1.32 1.30 1.32 1.32 1.33 1.25 1.23 1.26 1.27 1.23 1.22
0.52 0.46 0.47 0.46 0.45 0.46 0.37 0.42 0.39 0.35 0.33 0.27 0.34 0.25 0.35 0.34 0.37 0.39 0.41 0.43 0.46 0.62 0.67 0.70 0.60 0.61 0.60 0.73 0.94 1.06 1.16 1.24 1.27 1.30 1.24 1.21 1.18 1.15 1.18 1.17 1.23 1.23 1.22 1.18
0.51 0.51 0.41 0.45 0.46 0.50 0.43 0.46 0.39 0.37 0.33 0.33 0.31 0.28 0.32 0.36 0.30 0.32 0.32 0.38 0.51 0.57 0.64 0.67 0.60 0.61 0.64 0.70 0.77 0.91 1.03 1.10 1.16 1.21 1.24 1.20 1.16 1.22 1.24 1.19 1.16 1.23 1.18 1.22
0.53 0.62 0.56 0.45 0.45 0.50 0.47 0.43 0.40 0.38 0.35 0.26 0.32 0.31 0.32 0.34 0.34 0.34 0.33 0.37 0.50 0.58 0.62 0.71 0.69 0.65 0.62 0.73 0.72 0.78 0.87 0.97 1.07 1.13 1.20 1.22 1.20 1.17 1.14 1.17 1.12 1.16 1.19 1.19
0.50 0.52 0.57 0.58 0.39 0.48 0.40 0.37 0.30 0.28 0.27 0.24 0.34 0.31 0.32 0.37 0.37 0.35 0.37 0.39 0.50 0.56 0.62 0.69 0.68 0.62 0.59 0.63 0.70 0.71 0.76 0.78 0.93 1.01 1.09 1.16 1.22 1.20 1.16 1.19 1.23 1.14 1.13 1.14
0.40 0.37 0.50 0.53 0.43 0.41 0.40 0.38 0.32 0.25 0.26 0.28 0.36 0.29 0.35 0.45 0.44 0.43 0.42 0.44 0.46 0.53 0.64 0.68 0.71 0.65 0.62 0.61 0.66 0.70 0.71 0.74 0.83 0.89 0.96 1.04 1.09 1.11 1.08 1.10 1.15 1.15 1.10 1.08
0.38 0.37 0.53 0.57 0.52 0.46 0.41 0.34 0.41 0.34 0.40 0.34 0.35 0.36 0.43 0.48 0.40 0.39 0.38 0.45 0.49 0.50 0.62 0.67 0.71 0.70 0.65 0.63 0.64 0.67 0.69 0.74 0.78 0.81 0.89 0.96 1.01 1.01 1.02 1.04 1.08 1.09 1.06 1.07
0.44 0.35 0.47 0.57 0.56 0.51 0.47 0.48 0.34 0.33 0.28 0.26 0.34 0.35 0.35 0.39 0.40 0.40 0.43 0.49 0.53 0.56 0.62 0.68 0.70 0.73 0.70 0.67 0.69 0.71 0.71 0.69 0.76 0.82 0.85 0.90 0.95 0.98 0.99 0.98 0.95 0.96 0.96 0.96
0.43 0.38 0.43 0.48 0.47 0.44 0.43 0.41 0.41 0.40 0.36 0.29 0.29 0.36 0.47 0.43 0.48 0.46 0.50 0.50 0.53 0.61 0.63 0.68 0.72 0.77 0.78 0.78 0.70 0.71 0.72 0.72 0.74 0.78 0.83 0.87 0.92 0.97 1.00 0.98 0.97 0.98 0.95 0.94
0.42 0.39 0.37 0.41 0.49 0.54 0.51 0.44 0.45 0.36 0.34 0.36 0.37 0.41 0.48 0.49 0.52 0.53 0.51 0.49 0.51 0.53 0.66 0.70 0.74 0.77 0.81 0.81 0.79 0.72 0.73 0.74 0.79 0.83 0.81 0.82 0.88 0.93 0.95 0.97 1.01 1.03 1.02 1.04
0.51 0.37 0.30 0.36 0.45 0.46 0.46 0.48 0.46 0.46 0.46 0.43 0.36 0.36 0.54 0.52 0.49 0.51 0.51 0.50 0.53 0.56 0.55 0.64 0.72 0.75 0.79 0.83 0.83 0.81 0.79 0.79 0.80 0.83 0.84 0.83 0.82 0.84 0.87 0.91 0.97 0.99 1.00 1.01
0.51 0.45 0.39 0.31 0.38 0.42 0.39 0.42 0.44 0.44 0.37 0.38 0.40 0.42 0.47 0.47 0.47 0.51 0.52 0.52 0.56 0.60 0.60 0.62 0.66 0.72 0.77 0.82 0.85 0.85 0.82 0.86 0.86 0.86 0.85 0.83 0.83 0.83 0.86 0.89 0.92 0.92 0.93 0.93
0.49 0.40 0.47 0.42 0.49 0.45 0.44 0.42 0.43 0.40 0.41 0.37 0.40 0.39 0.42 0.46 0.49 0.50 0.55 0.56 0.54 0.54 0.55 0.58 0.61 0.68 0.75 0.78 0.80 0.84 0.84 0.85 0.87 0.85 0.82 0.79 0.88 0.92 0.92 0.90 0.90 0.91 0.90 0.90
0.50 0.40 0.47 0.41 0.43 0.43 0.40 0.41 0.42 0.43 0.45 0.44 0.45 0.44 0.52 0.54 0.56 0.55 0.55 0.55 0.54 0.56 0.61 0.62 0.65 0.66 0.66 0.75 0.80 0.83 0.83 0.83 0.88 0.85 0.79 0.82 0.84 0.88 0.91 0.91 0.89 0.88 0.87 0.88
0.39 0.42 0.40 0.36 0.45 0.41 0.34 0.42 0.47 0.48 0.49 0.49 0.42 0.50 0.58 0.55 0.55 0.58 0.60 0.62 0.63 0.62 0.62 0.64 0.63 0.63 0.67 0.70 0.73 0.82 0.86 0.92 0.89 0.86 0.85 0.84 0.84 0.83 0.82 0.85 0.84 0.81 0.81 0.86
0.36 0.40 0.41 0.35 0.40 0.27 0.47 0.53 0.49 0.50 0.52 0.53 0.54 0.54 0.56 0.54 0.56 0.63 0.65 0.65 0.67 0.69 0.72 0.72 0.71 0.67 0.69 0.73 0.70 0.72 0.80 0.89 0.90 0.88 0.88 0.87 0.87 0.81 0.83 0.85 0.83 0.85 0.86 0.84
0.39 0.37 0.36 0.31 0.32 0.39 0.39 0.48 0.51 0.52 0.49 0.52 0.54 0.56 0.55 0.51 0.52 0.64 0.70 0.66 0.62 0.70 0.73 0.79 0.80 0.78 0.77 0.79 0.80 0.71 0.66 0.72 0.85 0.89 0.93 0.93 0.90 0.86 0.85 0.83 0.83 0.85 0.87 0.87
0.38 0.36 0.34 0.35 0.29 0.25 0.39 0.53 0.61 0.52 0.41 0.50 0.52 0.51 0.48 0.45 0.35 0.46 0.60 0.63 0.60 0.62 0.70 0.75 0.82 0.87 0.86 0.86 0.87 0.81 0.74 0.70 0.70 0.80 0.91 1.01 1.03 0.98 0.95 0.91 0.91 0.92 0.93 0.94
0.29 0.30 0.26 0.29 0.28 0.29 0.44 0.49 0.51 0.33 0.42 0.56 0.56 0.55 0.51 0.44 0.47 0.50 0.51 0.52 0.58 0.65 0.67 0.71 0.76 0.79 0.83 0.87 0.88 0.89 0.86 0.82 0.86 0.85 0.87 0.93 1.00 1.02 1.04 1.03 1.05 1.04 1.02 0.99
0.26 0.25 0.24 0.28 0.26 0.24 0.49 0.44 0.36 0.52 0.58 0.58 0.54 0.52 0.45 0.44 0.45 0.46 0.48 0.51 0.57 0.60 0.64 0.67 0.69 0.72 0.78 0.83 0.87 0.85 0.83 0.90 0.95 0.97 0.92 0.92 0.96 1.01 1.04 1.05 1.04 1.06 1.05 1.02
0.29 0.28 0.28 0.25 0.27 0.46 0.54 0.56 0.57 0.57 0.54 0.52 0.49 0.48 0.45 0.40 0.38 0.41 0.46 0.56 0.59 0.61 0.57 0.60 0.65 0.67 0.72 0.75 0.79 0.78 0.82 0.89 0.91 0.91 0.91 0.91 0.96 0.98 1.02 1.02 1.00 1.01 1.02 0.99
0.35 0.45 0.35 0.40 0.42 0.51 0.51 0.56 0.53 0.54 0.51 0.49 0.47 0.43 0.39 0.36 0.38 0.40 0.46 0.50 0.50 0.51 0.52 0.58 0.61 0.62 0.65 0.69 0.74 0.78 0.84 0.90 0.89 0.85 0.86 0.89 0.90 0.93 0.96 0.97 0.98 0.98 1.01 0.98
0.40 0.37 0.31 0.33 0.46 0.48 0.49 0.51 0.48 0.47 0.46 0.44 0.44 0.43 0.41 0.41 0.39 0.39 0.42 0.45 0.47 0.48 0.50 0.52 0.56 0.59 0.61 0.66 0.69 0.73 0.83 0.87 0.87 0.87 0.86 0.85 0.85 0.86 0.87 0.90 0.93 0.92 0.95 0.95
0.36 0.36 0.31 0.33 0.46 0.43 0.46 0.49 0.47 0.43 0.42 0.44 0.43 0.42 0.44 0.43 0.41 0.42 0.41 0.45 0.47 0.47 0.51 0.53 0.55 0.56 0.61 0.63 0.64 0.66 0.70 0.80 0.82 0.81 0.82 0.83 0.82 0.81 0.80 0.82 0.83 0.87 0.87 0.86
Wind_Speed
34 33 36 34 32 28 25 21 20 17 17 16 18 19 18 16 14 13 14 13 12 12 10 8 8 8 8 8 7 15 15 13 12 13 15 18 20 23 27 29 29 29 29 31
34 38 35 32 31 30 30 27 23 20 15 15 18 19 20 19 18 14 14 13 12 11 10 8 7 7 6 4 5 13 14 15 15 15 15 17 20 22 25 27 27 27 28 30
37 32 33 32 31 31 30 28 24 22 15 16 18 20 20 20 20 15 15 14 13 12 11 9 8 6 5 4 6 10 14 16 16 16 16 18 19 22 25 26 26 26 27 28
31 37 24 32 34 30 29 25 24 23 20 18 15 18 16 18 20 17 16 15 14 12 12 10 9 7 5 5 6 9 12 14 17 18 19 20 22 22 25 28 27 28 27 28
25 29 31 32 32 31 28 23 23 24 23 20 20 15 15 15 17 15 16 16 15 14 13 12 10 8 7 7 7 8 11 14 15 17 18 22 22 23 23 28 30 29 29 29
31 30 26 28 32 27 23 26 23 20 21 22 20 18 14 13 11 8 10 10 13 14 14 13 11 10 8 8 8 9 10 12 14 15 16 21 25 24 23 26 29 30 30 31
29 32 29 28 29 31 30 23 19 19 21 21 18 16 17 9 9 10 11 12 11 14 14 14 13 12 10 10 10 10 10 11 13 15 16 17 20 24 27 25 26 30 30 32
24 28 30 26 29 28 30 29 21 17 17 18 20 13 13 13 13 9 9 11 12 13 15 15 15 13 12 11 11 11 11 11 11 13 15 17 18 20 22 24 24 27 28 29
19 24 29 27 26 29 30 32 27 18 13 13 15 16 11 12 12 11 10 10 11 13 16 16 15 15 13 13 12 12 12 12 12 12 15 16 18 19 19 21 22 22 26 26
24 22 23 29 28 31 29 26 29 26 17 16 15 17 9 10 9 9 9 6 8 12 15 16 17 17 15 14 13 14 14 14 14 14 14 16 18 19 19 19 21 22 23 25
28 25 13 27 29 32 30 27 27 25 23 17 15 12 10 14 13 9 6 5 7 10 13 16 17 18 17 16 15 15 15 16 16 15 15 16 18 19 20 20 21 21 22 24
22 19 19 20 29 30 31 28 26 23 23 24 18 13 10 11 8 8 9 8 7 8 12 15 17 18 19 18 17 17 17 17 17 17 18 18 19 20 21 22 22 23 23 24
10 20 22 15 17 27 32 31 29 26 21 18 18 17 17 13 12 11 10 9 9 9 11 13 16 18 19 20 21 20 19 20 19 19 19 20 21 22 23 24 25 25 26 26
15 19 22 22 15 21 26 28 28 28 24 25 22 18 18 15 15 15 14 13 12 10 11 13 15 17 19 20 22 22 22 22 22 22 22 22 23 25 26 26 27 28 28 29
12 14 15 23 18 17 18 21 24 25 25 23 23 24 22 18 17 16 16 17 16 17 15 15 17 18 19 20 21 23 23 24 24 24 25 25 26 26 26 27 28 29 30 31
10 11 12 21 19 17 20 23 23 22 20 21 21 20 17 14 14 15 18 18 18 19 17 16 16 18 22 22 23 24 25 27 27 27 27 27 27 28 29 29 29 29 30 31
14 11 9 11 13 14 18 21 18 20 22 21 20 12 14 12 12 14 14 15 15 18 22 21 20 20 20 22 23 25 26 27 28 29 29 29 28 28 28 29 29 30 30 30
16 16 11 8 11 13 11 10 21 17 13 12 13 11 10 11 12 9 9 11 13 16 18 20 21 21 22 21 23 25 27 29 30 31 32 32 31 31 31 31 31 31 31 32
23 17 13 11 11 9 13 9 12 17 13 9 11 10 10 10 13 11 10 12 13 14 16 18 21 23 24 24 24 24 26 29 31 33 33 34 35 35 35 35 35 34 34 33
26 23 18 15 12 12 10 13 12 9 10 9 10 11 11 12 12 14 17 17 18 17 17 17 19 21 24 25 26 27 27 28 29 31 34 36 36 37 38 38 37 37 36 35
24 23 23 19 16 13 14 13 12 16 12 10 11 11 13 14 17 21 22 21 21 20 20 20 19 20 22 24 26 27 26 27 28 29 31 33 35 37 37 38 38 38 37 35
21 21 20 22 21 22 15 16 16 12 12 12 13 14 16 18 20 21 22 23 22 22 22 22 22 21 22 23 24 25 27 30 31 31 30 29 29 32 32 34 34 35 36 36
15 17 16 18 19 13 11 11 12 14 15 15 16 18 19 19 20 21 22 22 21 21 23 24 25 24 23 23 23 25 27 28 28 28 29 31 31 31 32 33 34 35 36 36
14 13 12 12 11 11 11 9 10 11 13 14 16 17 18 19 20 20 20 20 21 21 22 23 23 24 25 26 26 27 27 26 26 26 27 28 29 30 32 33 35 37 37 36
9 12 14 13 11 10 9 8 9 10 11 12 14 14 15 17 17 19 19 20 21 22 23 23 23 23 24 24 25 26 27 26 25 25 26 27 28 28 28 29 31 32 33 35
12 10 13 11 10 10 10 10 11 12 13 14 15 15 16 17 18 19 19 21 22 22 24 24 24 25 24 25 25 25 25 27 27 27 26 26 26 26 27 27 26 26 28 30
Wind_Direction
224 224 224 224 225 232 238 240 248 245 247 234 250 254 254 253 248 258 256 255 252 255 260 265 268 282 297 298 242 199 201 203 194 189 177 182 184 190 195 197 198 200 204 203
223 226 226 227 229 229 234 240 245 251 241 245 259 259 255 250 252 255 251 253 251 246 245 253 259 272 285 279 203 194 201 204 202 198 195 192 193 191 193 194 199 203 204 205
230 227 223 226 225 229 228 234 237 245 240 252 259 263 259 251 254 250 255 256 247 238 237 239 247 256 262 237 204 201 207 203 202 204 204 199 198 198 199 200 204 205 205 204
233 225 222 220 227 224 229 227 237 245 249 252 266 256 261 246 244 239 246 245 242 232 228 232 235 238 237 221 210 205 202 204 209 211 210 207 205 205 208 209 209 207 210 212
228 224 228 225 222 224 229 232 236 238 245 251 252 256 263 249 246 247 253 233 231 229 225 224 225 227 226 214 211 208 207 208 211 212 220 216 215 216 217 213 214 216 217 217
235 234 232 232 226 223 227 228 235 235 239 240 246 251 260 255 226 240 236 228 218 225 222 221 221 220 220 212 210 209 207 209 212 214 219 217 217 216 215 215 217 220 222 224
234 231 231 234 224 219 225 217 220 226 229 236 240 236 239 213 214 250 246 233 223 224 218 218 215 216 214 212 209 209 208 210 213 216 216 214 214 216 217 219 222 221 227 227
220 226 223 224 217 213 212 211 214 220 227 231 224 234 245 239 238 229 240 240 247 225 217 218 216 215 214 211 210 209 210 211 211 214 213 213 213 214 215 218 224 223 224 225
222 224 228 233 219 218 213 220 224 244 239 241 206 228 244 232 242 236 238 250 237 221 215 217 215 215 214 213 215 215 216 217 215 215 214 214 213 215 215 217 220 223 223 223
231 244 225 224 221 220 225 220 217 224 227 227 219 233 219 214 202 209 227 250 239 226 219 218 216 215 217 221 221 221 222 222 220 218 217 216 216 217 219 221 222 223 225 224
228 229 234 211 217 215 218 223 219 223 228 231 233 238 229 212 245 223 233 259 238 228 226 218 219 219 221 223 227 227 226 225 225 223 222 221 221 222 224 227 227 228 227 226
227 224 231 226 214 217 220 218 215 220 225 229 230 228 224 207 204 220 254 249 250 242 225 225 225 224 227 229 228 229 229 228 229 228 228 228 227 227 228 230 231 232 233 232
236 219 226 225 224 210 214 221 225 224 229 226 230 227 217 219 239 255 236 256 254 244 235 232 230 231 233 233 232 233 233 233 233 233 234 234 234 234 235 237 237 237 238 239
245 224 220 220 219 214 214 217 219 220 226 228 227 231 226 238 246 245 259 260 255 252 252 244 239 238 238 238 236 236 237 237 237 239 240 241 240 239 240 240 241 241 242 243
244 225 236 226 228 221 211 215 215 222 228 230 234 240 246 250 247 247 251 257 259 256 256 258 249 246 243 241 240 239 239 239 240 242 245 245 243 243 244 244 244 244 245 246
233 220 244 220 226 225 225 223 232 236 235 236 237 239 239 253 250 255 257 258 257 256 261 263 265 258 248 246 246 245 245 245 244 245 247 247 247 246 247 246 245 246 247 248
216 223 236 211 220 229 234 228 224 230 229 231 232 234 235 241 259 261 265 266 268 264 263 263 263 261 257 255 251 249 249 249 247 248 249 248 248 248 246 245 246 247 248 249
220 217 216 225 232 212 214 221 213 219 215 209 200 213 231 253 261 249 266 274 273 270 270 262 261 261 259 261 261 258 254 251 251 251 251 250 249 248 247 248 248 250 251 252
216 219 223 221 228 241 234 210 199 188 193 214 217 230 245 261 257 233 273 281 285 285 276 266 267 264 262 261 264 265 261 258 254 254 254 252 251 250 250 250 251 252 253 255
215 219 226 217 220 216 225 189 201 227 210 226 237 246 258 268 260 262 286 284 282 285 282 280 279 267 264 266 266 266 264 262 262 260 256 254 252 253 253 253 253 253 254 255
210 215 222 227 228 235 212 219 230 225 226 237 246 257 270 271 275 279 284 281 279 279 279 282 282 279 275 273 270 264 264 264 266 265 263 259 255 254 254 253 253 253 254 256
208 214 221 228 231 236 245 236 238 234 238 250 262 269 274 278 281 284 286 283 283 280 280 281 281 282 282 280 275 271 270 272 267 266 262 263 259 258 255 252 254 256 256 257
210 214 219 221 229 220 228 215 231 242 250 261 268 274 278 281 286 287 286 284 284 285 285 283 278 280 282 283 280 276 276 274 270 268 264 260 259 259 257 255 255 257 258 258
201 214 214 217 203 209 212 227 246 253 259 267 271 275 279 281 285 287 286 287 286 287 289 290 287 283 281 284 282 279 278 274 271 270 269 264 262 261 260 260 259 258 257 258
207 215 216 218 206 211 220 243 256 265 271 275 278 279 282 284 286 289 289 289 289 289 290 290 288 287 286 284 284 282 279 275 271 269 269 267 264 262 261 261 261 262 259 259
223 227 224 223 235 242 243 255 266 271 277 280 280 281 282 286 288 289 289 291 291 292 291 290 289 287 286 286 285 285 285 276 272 271 269 268 263 261 261 259 260 263 262 262